Location: Clairmont
(55.2667°N, 118.8000°W)
Time: 14:43:01
(UTC+00:00)

Envisat - Pass Details

Date: 28 October 2020
Orbit: 764 x 766 km, 98.1° (Epoch: 03 December)

Event Time Altitude Azimuth Distance (km) Brightness Sun altitude
Rises 00:58:53 0° 170° (S) 3,224 6.3 -5.2°
Reaches altitude 10° 01:01:12 10° 173° (S) 2,302 5.6 -5.6°
Maximum altitude 01:06:15 69° 257° (WSW) 825 3.5 -6.3°
Drops below altitude 10° 01:11:21 10° 341° (NNW) 2,318 5.6 -7.0°
Sets 01:13:42 0° 344° (NNW) 3,249 6.3 -7.3°
